Time,TemperatureF,DewpointF,PressureIn,WindDirection,WindDirectionDegrees,WindSpeedMPH,WindSpeedGustMPH,Humidity,HourlyPrecipIn,Conditions,Clouds,dailyrainin,SoftwareType,DateUTC
2013-04-17 00:05:00,74.5,68.0,29.83,ESE,115,4.0,8.0,79,0.00,,,0.00,weatherlink.com 1.10,2013-04-17 05:05:00,
2013-04-17 00:20:00,75.0,68.0,29.83,SE,146,2.0,9.0,78,0.00,,,0.00,weatherlink.com 1.10,2013-04-17 05:20:00,
2013-04-17 00:35:00,74.5,68.0,29.83,SE,136,2.0,7.0,79,0.00,,,0.00,weatherlink.com 1.10,2013-04-17 05:35:00,
2013-04-17 00:50:00,74.2,68.0,29.83,SE,135,2.0,8.0,80,0.00,,,0.00,weatherlink.com 1.10,2013-04-17 05:50:00,
2013-04-17 01:05:00,74.1,68.0,29.84,South,190,3.0,10.0,81,0.00,,,0.00,weatherlink.com 1.10,2013-04-17 06:05:00,
2013-04-17 01:20:00,74.1,68.0,29.84,SE,133,4.0,12.0,81,0.00,,,0.00,weatherlink.com 1.10,2013-04-17 06:20:00,
2013-04-17 01:35:00,73.7,68.0,29.84,SSE,158,4.0,10.0,81,0.00,,,0.00,weatherlink.com 1.10,2013-04-17 06:35:00,
2013-04-17 01:50:00,73.2,67.0,29.84,SSE,152,3.0,9.0,82,0.00,,,0.00,weatherlink.com 1.10,2013-04-17 06:50:00,
2013-04-17 02:05:00,72.8,67.0,29.83,SSE,155,9.0,12.0,82,0.00,,,0.00,weatherlink.com 1.10,2013-04-17 07:05:00,
2013-04-17 02:20:00,72.7,67.0,29.83,SSE,148,4.0,12.0,81,0.00,,,0.00,weatherlink.com 1.10,2013-04-17 07:20:00,
2013-04-17 02:35:00,72.3,67.0,29.83,South,183,5.0,12.0,82,0.00,,,0.00,weatherlink.com 1.10,2013-04-17 07:35:00,
2013-04-17 02:50:00,71.9,67.0,29.82,SE,133,6.0,11.0,83,0.00,,,0.00,weatherlink.com 1.10,2013-04-17 07:50:00,
2013-04-17 03:05:00,71.5,67.0,29.81,SSE,155,7.0,14.0,84,0.00,,,0.00,weatherlink.com 1.10,2013-04-17 08:05:00,
2013-04-17 03:20:00,71.3,67.0,29.81,SSE,162,11.0,14.0,85,0.00,,,0.00,weatherlink.com 1.10,2013-04-17 08:20:00,
2013-04-17 03:35:00,71.0,67.0,29.81,SSE,166,4.0,12.0,86,0.00,,,0.00,weatherlink.com 1.10,2013-04-17 08:35:00,
2013-04-17 03:50:00,71.2,67.0,29.80,SSE,160,11.0,20.0,86,0.00,,,0.00,weatherlink.com 1.10,2013-04-17 08:50:00,
2013-04-17 04:05:00,71.1,67.0,29.80,SE,136,7.0,12.0,86,0.00,,,0.00,weatherlink.com 1.10,2013-04-17 09:05:00,
2013-04-17 04:20:00,71.5,67.0,29.80,South,172,5.0,11.0,86,0.00,,,0.00,weatherlink.com 1.10,2013-04-17 09:20:00,
2013-04-17 04:35:00,71.9,68.0,29.80,SSE,166,3.0,14.0,86,0.00,,,0.00,weatherlink.com 1.10,2013-04-17 09:35:00,
2013-04-17 04:50:00,71.9,68.0,29.80,SW,229,3.0,13.0,87,0.00,,,0.00,weatherlink.com 1.10,2013-04-17 09:50:00,
2013-04-17 05:05:00,71.6,68.0,29.81,SSE,150,6.0,12.0,88,0.00,,,0.00,weatherlink.com 1.10,2013-04-17 10:05:00,
2013-04-17 05:20:00,71.1,68.0,29.81,SSE,149,6.0,10.0,90,0.00,,,0.00,weatherlink.com 1.10,2013-04-17 10:20:00,
2013-04-17 05:35:00,70.9,68.0,29.80,SSE,153,4.0,12.0,91,0.00,,,0.00,weatherlink.com 1.10,2013-04-17 10:35:00,
2013-04-17 05:50:00,70.7,68.0,29.80,SSE,155,6.0,12.0,92,0.00,,,0.00,weatherlink.com 1.10,2013-04-17 10:50:00,
2013-04-17 06:05:00,70.6,68.0,29.80,ESE,121,3.0,11.0,92,0.00,,,0.00,weatherlink.com 1.10,2013-04-17 11:05:00,
2013-04-17 06:20:00,-999.0,-99.9,29.80,North,-999,-999.0,-999.0,-999,0.00,,,0.00,weatherlink.com 1.10,2013-04-17 11:20:00,
2013-04-17 06:35:00,-999.0,-99.9,29.80,North,-999,-999.0,-999.0,-999,0.00,,,0.00,weatherlink.com 1.10,2013-04-17 11:35:00,
2013-04-17 06:50:00,-999.0,-99.9,29.80,North,-999,-999.0,-999.0,-999,0.00,,,0.00,weatherlink.com 1.10,2013-04-17 11:50:00,
2013-04-17 07:05:00,-999.0,-99.9,29.81,North,-999,-999.0,-999.0,-999,0.00,,,0.00,weatherlink.com 1.10,2013-04-17 12:05:00,
2013-04-17 07:20:00,-999.0,-99.9,29.82,North,-999,-999.0,-999.0,-999,0.00,,,0.00,weatherlink.com 1.10,2013-04-17 12:20:00,
2013-04-17 07:35:00,-999.0,-99.9,29.82,North,-999,-999.0,-999.0,-999,0.00,,,0.00,weatherlink.com 1.10,2013-04-17 12:35:00,
2013-04-17 07:50:00,-999.0,-99.9,29.82,North,-999,-999.0,-999.0,-999,0.00,,,0.00,weatherlink.com 1.10,2013-04-17 12:50:00,
2013-04-17 08:06:00,71.6,69.0,29.82,SE,138,10.0,13.0,92,0.00,,,0.00,weatherlink.com 1.10,2013-04-17 13:06:00,
2013-04-17 08:21:00,71.8,69.0,29.81,SE,127,10.0,16.0,92,0.00,,,0.00,weatherlink.com 1.10,2013-04-17 13:21:00,
2013-04-17 08:36:00,72.1,70.0,29.82,SSE,154,7.0,12.0,92,0.00,,,0.00,weatherlink.com 1.10,2013-04-17 13:36:00,
2013-04-17 08:51:00,72.2,70.0,29.82,SE,138,7.0,14.0,91,0.00,,,0.00,weatherlink.com 1.10,2013-04-17 13:51:00,
2013-04-17 09:06:00,72.3,69.0,29.81,SSW,198,4.0,13.0,90,0.00,,,0.00,weatherlink.com 1.10,2013-04-17 14:06:00,
2013-04-17 09:21:00,72.4,69.0,29.81,SE,146,7.0,15.0,89,0.00,,,0.00,weatherlink.com 1.10,2013-04-17 14:21:00,
2013-04-17 09:36:00,72.9,69.0,29.80,SE,146,4.0,16.0,87,0.00,,,0.00,weatherlink.com 1.10,2013-04-17 14:36:00,
2013-04-17 09:51:00,73.3,69.0,29.80,SSE,149,9.0,17.0,86,0.00,,,0.00,weatherlink.com 1.10,2013-04-17 14:51:00,
2013-04-17 10:06:00,73.8,69.0,29.80,SSE,160,4.0,12.0,84,0.00,,,0.00,weatherlink.com 1.10,2013-04-17 15:06:00,
2013-04-17 10:21:00,73.9,68.0,29.80,SSE,152,3.0,14.0,82,0.00,,,0.00,weatherlink.com 1.10,2013-04-17 15:21:00,
2013-04-17 10:36:00,74.5,68.0,29.80,South,187,15.0,17.0,80,0.00,,,0.00,weatherlink.com 1.10,2013-04-17 15:36:00,
2013-04-17 10:51:00,74.6,68.0,29.79,SSE,150,10.0,15.0,80,0.00,,,0.00,weatherlink.com 1.10,2013-04-17 15:51:00,
2013-04-17 11:06:00,74.8,68.0,29.78,South,176,10.0,20.0,79,0.00,,,0.00,weatherlink.com 1.10,2013-04-17 16:06:00,
2013-04-17 11:21:00,74.8,68.0,29.79,SSE,162,10.0,18.0,79,0.00,,,0.00,weatherlink.com 1.10,2013-04-17 16:21:00,
2013-04-17 11:36:00,74.9,68.0,29.78,ESE,120,5.0,14.0,79,0.00,,,0.00,weatherlink.com 1.10,2013-04-17 16:36:00,
2013-04-17 11:51:00,74.8,68.0,29.78,WSW,238,10.0,20.0,78,0.00,,,0.00,weatherlink.com 1.10,2013-04-17 16:51:00,
2013-04-17 12:21:00,75.3,67.0,29.77,East,95,10.0,18.0,75,0.00,,,0.00,weatherlink.com 1.10,2013-04-17 17:21:00,
2013-04-17 12:36:00,75.3,67.0,29.76,SE,140,7.0,16.0,75,0.00,,,0.00,weatherlink.com 1.10,2013-04-17 17:36:00,
2013-04-17 13:06:00,75.9,67.0,29.75,SE,129,4.0,16.0,73,0.00,,,0.00,weatherlink.com 1.10,2013-04-17 18:06:00,
2013-04-17 13:21:00,76.5,67.0,29.74,SSE,160,7.0,18.0,72,0.00,,,0.00,weatherlink.com 1.10,2013-04-17 18:21:00,
2013-04-17 13:36:00,77.0,67.0,29.73,SSE,148,7.0,18.0,71,0.00,,,0.00,weatherlink.com 1.10,2013-04-17 18:36:00,
2013-04-17 13:51:00,77.5,67.0,29.72,South,176,4.0,13.0,70,0.00,,,0.00,weatherlink.com 1.10,2013-04-17 18:51:00,
2013-04-17 14:06:00,79.9,68.0,29.71,SSE,149,8.0,22.0,66,0.00,,,0.00,weatherlink.com 1.10,2013-04-17 19:06:00,
2013-04-17 14:36:00,80.7,67.0,29.69,SW,233,7.0,20.0,63,0.00,,,0.00,weatherlink.com 1.10,2013-04-17 19:36:00,
2013-04-17 14:51:00,80.2,66.0,29.68,SE,146,8.0,20.0,63,0.00,,,0.00,weatherlink.com 1.10,2013-04-17 19:51:00,
2013-04-17 15:06:00,79.9,67.0,29.67,ESE,114,7.0,18.0,65,0.00,,,0.00,weatherlink.com 1.10,2013-04-17 20:06:00,
2013-04-17 15:21:00,79.7,66.0,29.67,SE,132,6.0,21.0,64,0.00,,,0.00,weatherlink.com 1.10,2013-04-17 20:21:00,
2013-04-17 15:36:00,79.7,66.0,29.66,SSE,158,10.0,20.0,64,0.00,,,0.00,weatherlink.com 1.10,2013-04-17 20:36:00,
2013-04-17 15:51:00,79.9,67.0,29.66,SSW,200,8.0,16.0,64,0.00,,,0.00,weatherlink.com 1.10,2013-04-17 20:51:00,
2013-04-17 16:06:00,79.6,66.0,29.65,SE,141,11.0,14.0,64,0.00,,,0.00,weatherlink.com 1.10,2013-04-17 21:06:00,
2013-04-17 16:21:00,79.6,66.0,29.64,SE,135,6.0,17.0,64,0.00,,,0.00,weatherlink.com 1.10,2013-04-17 21:21:00,
2013-04-17 16:36:00,79.6,67.0,29.63,SE,140,6.0,15.0,65,0.00,,,0.00,weatherlink.com 1.10,2013-04-17 21:36:00,
2013-04-17 16:51:00,79.8,67.0,29.63,SSE,165,12.0,17.0,65,0.00,,,0.00,weatherlink.com 1.10,2013-04-17 21:51:00,
2013-04-17 17:06:00,80.6,68.0,29.61,SSE,150,10.0,20.0,65,0.00,,,0.00,weatherlink.com 1.10,2013-04-17 22:06:00,
2013-04-17 17:22:00,80.4,68.0,29.60,SE,132,11.0,21.0,66,0.00,,,0.00,weatherlink.com 1.10,2013-04-17 22:22:00,
2013-04-17 17:37:00,79.6,68.0,29.59,SE,141,11.0,18.0,67,0.00,,,0.00,weatherlink.com 1.10,2013-04-17 22:37:00,
2013-04-17 17:52:00,79.0,68.0,29.59,South,183,6.0,18.0,69,0.00,,,0.00,weatherlink.com 1.10,2013-04-17 22:52:00,
2013-04-17 18:07:00,78.6,68.0,29.59,ESE,103,1.0,18.0,71,0.00,,,0.00,weatherlink.com 1.10,2013-04-17 23:07:00,
2013-04-17 18:22:00,78.1,68.0,29.59,SSE,147,7.0,15.0,72,0.00,,,0.00,weatherlink.com 1.10,2013-04-17 23:22:00,
2013-04-17 18:37:00,77.8,69.0,29.57,SE,135,3.0,15.0,73,0.00,,,0.00,weatherlink.com 1.10,2013-04-17 23:37:00,
2013-04-17 18:52:00,77.6,68.0,29.57,East,94,5.0,17.0,73,0.00,,,0.00,weatherlink.com 1.10,2013-04-17 23:52:00,
2013-04-17 19:07:00,77.3,68.0,29.55,SE,136,5.0,16.0,73,0.00,,,0.00,weatherlink.com 1.10,2013-04-18 00:07:00,
2013-04-17 19:22:00,77.2,68.0,29.56,SE,128,5.0,16.0,73,0.00,,,0.00,weatherlink.com 1.10,2013-04-18 00:22:00,
2013-04-17 19:37:00,77.1,68.0,29.55,ESE,109,5.0,16.0,73,0.00,,,0.00,weatherlink.com 1.10,2013-04-18 00:37:00,
2013-04-17 19:52:00,77.0,68.0,29.56,SE,143,3.0,15.0,73,0.00,,,0.00,weatherlink.com 1.10,2013-04-18 00:52:00,
2013-04-17 20:07:00,76.9,68.0,29.54,SSE,149,7.0,17.0,73,0.00,,,0.00,weatherlink.com 1.10,2013-04-18 01:07:00,
2013-04-17 20:22:00,76.8,68.0,29.53,ESE,122,15.0,19.0,73,0.00,,,0.00,weatherlink.com 1.10,2013-04-18 01:22:00,
2013-04-17 20:52:00,76.8,67.0,29.54,ESE,103,15.0,20.0,72,0.00,,,0.00,weatherlink.com 1.10,2013-04-18 01:52:00,
2013-04-17 21:07:00,76.8,67.0,29.54,SE,136,19.0,21.0,72,0.00,,,0.00,weatherlink.com 1.10,2013-04-18 02:07:00,
2013-04-17 21:22:00,76.8,67.0,29.53,SE,124,6.0,22.0,72,0.00,,,0.00,weatherlink.com 1.10,2013-04-18 02:22:00,
2013-04-17 21:37:00,76.9,67.0,29.54,SE,141,7.0,26.0,71,0.00,,,0.00,weatherlink.com 1.10,2013-04-18 02:37:00,
2013-04-17 21:52:00,76.8,67.0,29.53,SSE,149,5.0,20.0,71,0.00,,,0.00,weatherlink.com 1.10,2013-04-18 02:52:00,
2013-04-17 22:07:00,76.6,67.0,29.52,South,172,6.0,25.0,72,0.00,,,0.00,weatherlink.com 1.10,2013-04-18 03:07:00,
2013-04-17 22:22:00,76.5,67.0,29.52,East,101,17.0,24.0,72,0.00,,,0.00,weatherlink.com 1.10,2013-04-18 03:22:00,
2013-04-17 22:37:00,76.4,67.0,29.52,SE,146,8.0,24.0,73,0.00,,,0.00,weatherlink.com 1.10,2013-04-18 03:37:00,
2013-04-17 22:52:00,76.1,67.0,29.52,SW,228,14.0,27.0,74,0.00,,,0.00,weatherlink.com 1.10,2013-04-18 03:52:00,
2013-04-17 23:07:00,75.9,68.0,29.52,South,181,12.0,25.0,76,0.00,,,0.00,weatherlink.com 1.10,2013-04-18 04:07:00,
2013-04-17 23:22:00,75.9,68.0,29.52,SSE,160,13.0,23.0,77,0.00,,,0.00,weatherlink.com 1.10,2013-04-18 04:22:00,
2013-04-17 23:37:00,76.0,68.0,29.52,SSW,211,13.0,32.0,77,0.00,,,0.00,weatherlink.com 1.10,2013-04-18 04:37:00,
2013-04-17 23:52:00,75.9,69.0,29.54,SW,221,20.0,21.0,78,0.00,,,0.00,weatherlink.com 1.10,2013-04-18 04:52:00,